Private Wetterstation Wechselburg
Wetterdaten: Dienstag, 15.07.2014
Datum Zeit Temp. +2m Bodentemp. Temp.+5cm Temp. Wind Windchill X Diff Temp. Feuchte +2m Feuchte +5cm Sonnenschein Luftdruck Regen Wind Richtung Richtung Sonnenschein UV Taupunkt Windchill Windben
15.07.2014 00:00 17,8 C 24,9 C 18,1 C 17,8 C 17,8 C 0,0 C 83 % 85 % 0 % 1013,2 hPa 0,0 l/m 0,0 km/h (0 Bft) W-SW 247 0 min 0,0 UV-I 14,9 C 17,8 C 0,0 km/h (0 Bft)
15.07.2014 00:05 17,8 C 24,9 C 18,0 C 17,8 C 17,8 C 0,0 C 83 % 85 % 0 % 1013,2 hPa 0,0 l/m 0,0 km/h (0 Bft) N 360 0 min 0,0 UV-I 14,9 C 17,8 C 0,0 km/h (0 Bft)
15.07.2014 00:10 17,9 C 24,9 C 18,0 C 17,9 C 17,8 C 0,0 C 84 % 86 % 0 % 1013,2 hPa 0,0 l/m 0,2 km/h (0 Bft) N-NW 337 0 min 0,0 UV-I 15,2 C 17,8 C 0,0 km/h (0 Bft)
15.07.2014 00:15 17,9 C 24,9 C 18,1 C 17,9 C 17,8 C 0,0 C 84 % 86 % 0 % 1013,4 hPa 0,0 l/m 0,2 km/h (0 Bft) S-SO 157 0 min 0,0 UV-I 15,2 C 17,8 C 0,0 km/h (0 Bft)
15.07.2014 00:20 17,9 C 24,9 C 17,9 C 17,8 C 17,5 C 0,0 C 83 % 86 % 0 % 1013,4 hPa 0,0 l/m 0,0 km/h (0 Bft) S 180 0 min 0,0 UV-I 15,0 C 17,5 C 0,0 km/h (0 Bft)
15.07.2014 00:25 17,8 C 24,9 C 17,9 C 17,6 C 17,3 C 0,0 C 83 % 85 % 0 % 1013,4 hPa 0,0 l/m 0,0 km/h (0 Bft) W-NW 292 0 min 0,0 UV-I 14,9 C 17,3 C 0,0 km/h (0 Bft)
15.07.2014 00:30 17,7 C 24,9 C 17,7 C 17,5 C 17,0 C 0,0 C 83 % 85 % 0 % 1013,4 hPa 0,0 l/m 0,0 km/h (0 Bft) NW 315 0 min 0,0 UV-I 14,8 C 17,0 C 0,0 km/h (0 Bft)
15.07.2014 00:35 17,6 C 24,9 C 17,6 C 17,3 C 16,7 C 0,0 C 83 % 85 % 0 % 1013,4 hPa 0,0 l/m 0,0 km/h (0 Bft) NW 315 0 min 0,0 UV-I 14,7 C 16,7 C 0,0 km/h (0 Bft)
15.07.2014 00:40 17,5 C 24,9 C 17,4 C 17,1 C 16,4 C 0,0 C 84 % 86 % 0 % 1013,4 hPa 0,0 l/m 0,0 km/h (0 Bft) O-NO 67 0 min 0,0 UV-I 14,8 C 16,4 C 0,0 km/h (0 Bft)
15.07.2014 00:45 17,5 C 24,9 C 17,3 C 17,1 C 16,3 C 0,0 C 84 % 86 % 0 % 1013,4 hPa 0,0 l/m 0,0 km/h (0 Bft) O 90 0 min 0,0 UV-I 14,8 C 16,3 C 0,0 km/h (0 Bft)
15.07.2014 00:50 17,1 C 24,9 C 17,2 C 16,8 C 16,2 C 0,0 C 84 % 86 % 0 % 1013,4 hPa 0,0 l/m 0,0 km/h (0 Bft) O 90 0 min 0,0 UV-I 14,4 C 16,2 C 0,0 km/h (0 Bft)
15.07.2014 00:55 16,9 C 24,9 C 17,1 C 16,6 C 16,1 C 0,0 C 84 % 86 % 0 % 1013,9 hPa 0,0 l/m 0,0 km/h (0 Bft) O 90 0 min 0,0 UV-I 14,2 C 16,1 C 0,0 km/h (0 Bft)
15.07.2014 01:00 16,6 C 24,9 C 16,9 C 16,4 C 16,0 C 0,0 C 85 % 86 % 0 % 1013,9 hPa 0,0 l/m 0,5 km/h (0 Bft) O-NO 67 0 min 0,0 UV-I 14,1 C 16,0 C 1,9 km/h (1 Bft)
15.07.2014 01:05 16,5 C 24,9 C 16,8 C 16,4 C 16,1 C 0,0 C 85 % 86 % 0 % 1013,9 hPa 0,0 l/m 1,0 km/h (0 Bft) O-NO 67 0 min 0,0 UV-I 14,0 C 16,1 C 0,0 km/h (0 Bft)
15.07.2014 01:10 16,3 C 24,9 C 16,8 C 16,2 C 16,0 C 0,0 C 85 % 86 % 0 % 1013,9 hPa 0,0 l/m 0,8 km/h (0 Bft) W 270 0 min 0,0 UV-I 13,8 C 16,0 C 2,7 km/h (1 Bft)
15.07.2014 01:15 16,3 C 25,1 C 16,9 C 16,2 C 16,0 C 0,0 C 85 % 86 % 0 % 1013,9 hPa 0,0 l/m 0,6 km/h (0 Bft) SO 135 0 min 0,0 UV-I 13,8 C 16,0 C 0,0 km/h (0 Bft)
15.07.2014 01:20 16,1 C 24,9 C 16,8 C 16,0 C 15,9 C 0,0 C 85 % 87 % 0 % 1013,9 hPa 0,0 l/m 0,3 km/h (0 Bft) O-NO 67 0 min 0,0 UV-I 13,6 C 15,9 C 0,0 km/h (0 Bft)
15.07.2014 01:25 16,0 C 24,9 C 16,7 C 16,0 C 15,9 C 0,0 C 85 % 87 % 0 % 1013,9 hPa 0,0 l/m 0,2 km/h (0 Bft) O-NO 67 0 min 0,0 UV-I 13,5 C 15,9 C 0,0 km/h (0 Bft)
15.07.2014 01:30 16,0 C 24,9 C 16,7 C 16,0 C 15,9 C 0,0 C 85 % 87 % 0 % 1013,9 hPa 0,0 l/m 0,0 km/h (0 Bft) O-SO 112 0 min 0,0 UV-I 13,5 C 15,9 C 0,0 km/h (0 Bft)
15.07.2014 01:35 15,9 C 24,9 C 16,7 C 15,9 C 15,9 C 0,0 C 86 % 87 % 0 % 1013,6 hPa 0,0 l/m 0,0 km/h (0 Bft) O-NO 67 0 min 0,0 UV-I 13,6 C 15,9 C 0,0 km/h (0 Bft)
15.07.2014 01:40 15,8 C 25,0 C 16,6 C 15,8 C 15,7 C 0,0 C 85 % 87 % 0 % 1013,6 hPa 0,0 l/m 0,0 km/h (0 Bft) S-SO 157 0 min 0,0 UV-I 13,3 C 15,7 C 0,0 km/h (0 Bft)
15.07.2014 01:45 15,9 C 25,0 C 16,5 C 15,8 C 15,6 C 0,0 C 86 % 87 % 0 % 1013,6 hPa 0,0 l/m 0,0 km/h (0 Bft) O-NO 67 0 min 0,0 UV-I 13,6 C 15,6 C 0,0 km/h (0 Bft)
15.07.2014 01:50 15,7 C 25,0 C 16,4 C 15,7 C 15,6 C 0,0 C 86 % 87 % 0 % 1013,6 hPa 0,0 l/m 0,0 km/h (0 Bft) O 90 0 min 0,0 UV-I 13,4 C 15,6 C 0,0 km/h (0 Bft)
15.07.2014 01:55 15,7 C 25,0 C 16,4 C 15,6 C 15,5 C 0,0 C 86 % 87 % 0 % 1014,4 hPa 0,0 l/m 0,0 km/h (0 Bft) O-NO 67 0 min 0,0 UV-I 13,4 C 15,5 C 0,0 km/h (0 Bft)
15.07.2014 02:00 15,7 C 24,9 C 16,4 C 15,6 C 15,4 C 0,0 C 86 % 87 % 0 % 1014,4 hPa 0,0 l/m 0,0 km/h (0 Bft) S-SW 202 0 min 0,0 UV-I 13,4 C 15,4 C 0,0 km/h (0 Bft)
15.07.2014 02:05 15,6 C 24,9 C 16,3 C 15,5 C 15,2 C 0,0 C 86 % 87 % 0 % 1014,4 hPa 0,0 l/m 0,0 km/h (0 Bft) S-SO 157 0 min 0,0 UV-I 13,3 C 15,2 C 0,0 km/h (0 Bft)
15.07.2014 02:10 15,4 C 24,9 C 16,3 C 15,3 C 15,0 C 0,0 C 86 % 87 % 0 % 1014,4 hPa 0,0 l/m 0,0 km/h (0 Bft) N-NW 337 0 min 0,0 UV-I 13,1 C 15,0 C 0,0 km/h (0 Bft)
15.07.2014 02:15 15,4 C 24,9 C 16,3 C 15,3 C 15,0 C 0,0 C 86 % 87 % 0 % 1014,2 hPa 0,0 l/m 0,0 km/h (0 Bft) S 180 0 min 0,0 UV-I 13,1 C 15,0 C 0,0 km/h (0 Bft)
15.07.2014 02:20 15,3 C 24,9 C 16,2 C 15,2 C 14,9 C 0,0 C 86 % 87 % 0 % 1014,2 hPa 0,0 l/m 0,0 km/h (0 Bft) SO 135 0 min 0,0 UV-I 13,0 C 14,9 C 0,0 km/h (0 Bft)
15.07.2014 02:25 15,3 C 24,9 C 16,1 C 15,1 C 14,8 C 0,0 C 86 % 87 % 0 % 1014,2 hPa 0,0 l/m 0,0 km/h (0 Bft) S 180 0 min 0,0 UV-I 13,0 C 14,8 C 0,0 km/h (0 Bft)
15.07.2014 02:30 15,1 C 24,9 C 16,1 C 15,0 C 14,7 C 0,0 C 86 % 87 % 0 % 1014,2 hPa 0,0 l/m 0,0 km/h (0 Bft) W 270 0 min 0,0 UV-I 12,8 C 14,7 C 0,0 km/h (0 Bft)
15.07.2014 02:35 15,0 C 25,0 C 16,0 C 14,9 C 14,7 C 0,0 C 86 % 87 % 0 % 1014,4 hPa 0,0 l/m 0,0 km/h (0 Bft) S 180 0 min 0,0 UV-I 12,7 C 14,7 C 0,0 km/h (0 Bft)
15.07.2014 02:40 14,9 C 24,9 C 15,9 C 14,8 C 14,7 C 0,0 C 86 % 87 % 0 % 1014,4 hPa 0,0 l/m 0,0 km/h (0 Bft) O-NO 67 0 min 0,0 UV-I 12,6 C 14,7 C 0,0 km/h (0 Bft)
15.07.2014 02:45 14,8 C 24,9 C 15,9 C 14,8 C 14,7 C 0,0 C 86 % 88 % 0 % 1014,4 hPa 0,0 l/m 0,0 km/h (0 Bft) O-SO 112 0 min 0,0 UV-I 12,5 C 14,7 C 0,0 km/h (0 Bft)
15.07.2014 02:50 14,8 C 24,9 C 15,8 C 14,7 C 14,5 C 0,0 C 87 % 88 % 0 % 1014,4 hPa 0,0 l/m 0,0 km/h (0 Bft) S 180 0 min 0,0 UV-I 12,7 C 14,5 C 0,0 km/h (0 Bft)
15.07.2014 02:55 14,7 C 24,9 C 15,7 C 14,6 C 14,4 C 0,0 C 86 % 88 % 0 % 1014,4 hPa 0,0 l/m 0,0 km/h (0 Bft) SW 225 0 min 0,0 UV-I 12,4 C 14,4 C 0,0 km/h (0 Bft)
15.07.2014 03:00 14,7 C 24,9 C 15,7 C 14,5 C 14,2 C 0,0 C 87 % 88 % 0 % 1014,4 hPa 0,0 l/m 0,0 km/h (0 Bft) S-SO 157 0 min 0,0 UV-I 12,6 C 14,2 C 0,0 km/h (0 Bft)
15.07.2014 03:05 14,5 C 24,9 C 15,5 C 14,4 C 14,1 C 0,0 C 87 % 88 % 0 % 1014,4 hPa 0,0 l/m 0,0 km/h (0 Bft) S-SO 157 0 min 0,0 UV-I 12,4 C 14,1 C 0,0 km/h (0 Bft)
15.07.2014 03:10 14,4 C 24,9 C 15,4 C 14,3 C 14,1 C 0,0 C 86 % 87 % 0 % 1014,4 hPa 0,0 l/m 0,0 km/h (0 Bft) O-NO 67 0 min 0,0 UV-I 12,1 C 14,1 C 0,0 km/h (0 Bft)
15.07.2014 03:15 14,3 C 24,9 C 15,3 C 14,2 C 14,1 C 0,0 C 86 % 87 % 0 % 1014,8 hPa 0,0 l/m 0,0 km/h (0 Bft) O-NO 67 0 min 0,0 UV-I 12,0 C 14,1 C 0,0 km/h (0 Bft)
15.07.2014 03:20 14,3 C 24,9 C 15,3 C 14,2 C 14,1 C 0,0 C 87 % 87 % 0 % 1014,8 hPa 0,0 l/m 0,0 km/h (0 Bft) O-NO 67 0 min 0,0 UV-I 12,2 C 14,1 C 0,0 km/h (0 Bft)
15.07.2014 03:25 14,2 C 24,9 C 15,2 C 14,2 C 14,1 C 0,0 C 87 % 87 % 0 % 1014,8 hPa 0,0 l/m 0,0 km/h (0 Bft) O-NO 67 0 min 0,0 UV-I 12,1 C 14,1 C 0,0 km/h (0 Bft)
15.07.2014 03:30 14,1 C 24,9 C 15,2 C 14,1 C 14,1 C 0,0 C 87 % 88 % 0 % 1014,8 hPa 0,0 l/m 0,0 km/h (0 Bft) N-NW 337 0 min 0,0 UV-I 12,0 C 14,1 C 0,0 km/h (0 Bft)
15.07.2014 03:35 14,0 C 24,9 C 15,1 C 14,0 C 14,0 C 0,0 C 87 % 88 % 0 % 1014,8 hPa 0,0 l/m 0,0 km/h (0 Bft) NO 45 0 min 0,0 UV-I 11,9 C 14,0 C 0,0 km/h (0 Bft)
15.07.2014 03:40 14,0 C 24,9 C 15,1 C 14,0 C 14,0 C 0,0 C 87 % 88 % 0 % 1014,8 hPa 0,0 l/m 0,0 km/h (0 Bft) O 90 0 min 0,0 UV-I 11,9 C 14,0 C 0,0 km/h (0 Bft)
15.07.2014 03:45 14,0 C 24,9 C 15,1 C 14,0 C 14,0 C 0,0 C 87 % 88 % 0 % 1014,8 hPa 0,0 l/m 0,0 km/h (0 Bft) O 90 0 min 0,0 UV-I 11,9 C 14,0 C 0,0 km/h (0 Bft)
15.07.2014 03:50 13,9 C 24,9 C 15,1 C 14,0 C 14,0 C 0,1 C 87 % 88 % 0 % 1014,8 hPa 0,0 l/m 0,0 km/h (0 Bft) O 90 0 min 0,0 UV-I 11,8 C 14,0 C 0,0 km/h (0 Bft)
15.07.2014 03:55 13,8 C 24,9 C 15,1 C 13,9 C 13,9 C 0,1 C 87 % 88 % 0 % 1014,9 hPa 0,0 l/m 0,0 km/h (0 Bft) O 90 0 min 0,0 UV-I 11,7 C 13,9 C 0,0 km/h (0 Bft)
15.07.2014 04:00 13,8 C 24,9 C 14,9 C 13,9 C 13,9 C 0,1 C 88 % 88 % 0 % 1014,9 hPa 0,0 l/m 0,0 km/h (0 Bft) O-NO 67 0 min 0,0 UV-I 11,8 C 13,9 C 0,0 km/h (0 Bft)
15.07.2014 04:05 13,7 C 24,9 C 14,8 C 13,8 C 13,8 C 0,1 C 88 % 88 % 0 % 1014,9 hPa 0,0 l/m 0,0 km/h (0 Bft) NO 45 0 min 0,0 UV-I 11,7 C 13,8 C 0,0 km/h (0 Bft)
15.07.2014 04:10 13,6 C 24,8 C 14,8 C 13,7 C 13,7 C 0,1 C 88 % 88 % 0 % 1014,9 hPa 0,0 l/m 0,2 km/h (0 Bft) W 270 0 min 0,0 UV-I 11,6 C 13,7 C 0,0 km/h (0 Bft)
15.07.2014 04:15 13,6 C 24,8 C 14,9 C 13,6 C 13,6 C 0,0 C 88 % 88 % 0 % 1014,7 hPa 0,0 l/m 0,2 km/h (0 Bft) W-SW 247 0 min 0,0 UV-I 11,6 C 13,6 C 0,0 km/h (0 Bft)
15.07.2014 04:20 13,5 C 24,7 C 14,6 C 13,5 C 13,5 C 0,0 C 88 % 88 % 0 % 1014,7 hPa 0,0 l/m 0,0 km/h (0 Bft) NW 315 0 min 0,0 UV-I 11,6 C 13,5 C 0,0 km/h (0 Bft)
15.07.2014 04:25 13,5 C 24,7 C 14,6 C 13,5 C 13,4 C 0,0 C 88 % 88 % 0 % 1014,7 hPa 0,0 l/m 0,0 km/h (0 Bft) NW 315 0 min 0,0 UV-I 11,6 C 13,4 C 0,0 km/h (0 Bft)
15.07.2014 04:30 13,3 C 24,8 C 14,5 C 13,3 C 13,3 C 0,0 C 88 % 88 % 0 % 1014,7 hPa 0,0 l/m 0,0 km/h (0 Bft) O 90 0 min 0,0 UV-I 11,4 C 13,3 C 0,0 km/h (0 Bft)
15.07.2014 04:35 13,3 C 24,9 C 14,5 C 13,3 C 13,3 C 0,0 C 88 % 88 % 0 % 1015,1 hPa 0,0 l/m 0,2 km/h (0 Bft) O-NO 67 0 min 0,0 UV-I 11,4 C 13,3 C 1,6 km/h (1 Bft)
15.07.2014 04:40 13,2 C 24,9 C 14,4 C 13,5 C 13,5 C 0,3 C 88 % 88 % 0 % 1015,1 hPa 0,0 l/m 0,2 km/h (0 Bft) O-NO 67 0 min 0,0 UV-I 11,3 C 13,5 C 0,0 km/h (0 Bft)
15.07.2014 04:45 13,3 C 24,8 C 14,4 C 13,5 C 13,5 C 0,2 C 88 % 88 % 0 % 1015,1 hPa 0,0 l/m 0,2 km/h (0 Bft) O 90 0 min 0,0 UV-I 11,4 C 13,5 C 0,0 km/h (0 Bft)
15.07.2014 04:50 13,2 C 24,8 C 14,4 C 13,3 C 13,3 C 0,1 C 88 % 88 % 0 % 1015,1 hPa 0,0 l/m 0,0 km/h (0 Bft) SW 225 0 min 0,0 UV-I 11,3 C 13,3 C 1,6 km/h (1 Bft)
15.07.2014 04:55 13,1 C 24,8 C 14,4 C 13,2 C 13,2 C 0,1 C 88 % 88 % 0 % 1015,3 hPa 0,0 l/m 0,0 km/h (0 Bft) S-SO 157 0 min 0,0 UV-I 11,2 C 13,2 C 0,0 km/h (0 Bft)
15.07.2014 05:00 13,1 C 24,8 C 14,3 C 13,1 C 13,0 C 0,0 C 88 % 88 % 0 % 1015,3 hPa 0,0 l/m 0,0 km/h (0 Bft) S 180 0 min 0,0 UV-I 11,2 C 13,0 C 0,0 km/h (0 Bft)
15.07.2014 05:05 12,9 C 24,7 C 14,3 C 13,0 C 13,0 C 0,1 C 88 % 88 % 0 % 1015,3 hPa 0,0 l/m 0,0 km/h (0 Bft) O-SO 112 0 min 0,0 UV-I 11,0 C 13,0 C 0,0 km/h (0 Bft)
15.07.2014 05:10 12,9 C 24,7 C 14,2 C 12,9 C 12,9 C 0,0 C 88 % 89 % 0 % 1015,3 hPa 0,0 l/m 0,0 km/h (0 Bft) W-SW 247 0 min 0,0 UV-I 11,0 C 12,9 C 0,0 km/h (0 Bft)
15.07.2014 05:15 12,8 C 24,7 C 14,3 C 13,0 C 13,0 C 0,2 C 88 % 89 % 0 % 1015,6 hPa 0,0 l/m 0,0 km/h (0 Bft) O-NO 67 0 min 0,0 UV-I 10,9 C 13,0 C 0,0 km/h (0 Bft)
15.07.2014 05:20 12,9 C 24,7 C 14,3 C 13,1 C 13,1 C 0,2 C 88 % 89 % 0 % 1015,6 hPa 0,0 l/m 0,0 km/h (0 Bft) S-SW 202 0 min 0,0 UV-I 11,0 C 13,1 C 0,0 km/h (0 Bft)
15.07.2014 05:25 12,8 C 24,7 C 14,3 C 13,2 C 13,2 C 0,4 C 88 % 89 % 11 % 1015,6 hPa 0,0 l/m 0,0 km/h (0 Bft) S-SW 202 5 min 0,0 UV-I 10,9 C 13,2 C 0,0 km/h (0 Bft)
15.07.2014 05:30 12,8 C 24,7 C 14,3 C 13,5 C 13,5 C 0,7 C 89 % 89 % 18 % 1015,6 hPa 0,0 l/m 0,0 km/h (0 Bft) O-NO 67 5 min 0,0 UV-I 11,0 C 13,5 C 0,0 km/h (0 Bft)
15.07.2014 05:35 12,9 C 24,9 C 14,3 C 13,7 C 13,7 C 0,8 C 89 % 89 % 21 % 1015,8 hPa 0,0 l/m 0,0 km/h (0 Bft) O 90 5 min 0,0 UV-I 11,1 C 13,7 C 0,0 km/h (0 Bft)
15.07.2014 05:40 13,1 C 24,9 C 14,4 C 13,9 C 13,9 C 0,8 C 89 % 89 % 21 % 1015,8 hPa 0,0 l/m 0,0 km/h (0 Bft) O 90 5 min 0,0 UV-I 11,3 C 13,9 C 0,0 km/h (0 Bft)
15.07.2014 05:45 13,1 C 24,9 C 14,5 C 13,9 C 13,9 C 0,8 C 90 % 89 % 21 % 1015,8 hPa 0,0 l/m 0,0 km/h (0 Bft) O-NO 67 5 min 0,0 UV-I 11,5 C 13,9 C 0,0 km/h (0 Bft)
15.07.2014 05:50 13,1 C 24,9 C 14,6 C 13,9 C 13,9 C 0,8 C 90 % 89 % 21 % 1015,8 hPa 0,0 l/m 0,0 km/h (0 Bft) S 180 5 min 0,0 UV-I 11,5 C 13,9 C 0,0 km/h (0 Bft)
15.07.2014 05:55 13,2 C 24,9 C 14,5 C 13,9 C 13,9 C 0,7 C 90 % 89 % 18 % 1015,8 hPa 0,0 l/m 0,0 km/h (0 Bft) O-NO 67 0 min 0,0 UV-I 11,6 C 13,9 C 0,0 km/h (0 Bft)
15.07.2014 06:00 13,3 C 24,9 C 14,7 C 14,0 C 14,0 C 0,7 C 90 % 89 % 18 % 1015,8 hPa 0,0 l/m 0,0 km/h (0 Bft) S 180 0 min 0,0 UV-I 11,7 C 14,0 C 0,0 km/h (0 Bft)
15.07.2014 06:05 13,2 C 24,9 C 14,7 C 14,0 C 14,0 C 0,8 C 90 % 89 % 21 % 1015,8 hPa 0,0 l/m 0,0 km/h (0 Bft) W 270 0 min 0,0 UV-I 11,6 C 14,0 C 0,0 km/h (0 Bft)
15.07.2014 06:10 13,2 C 24,9 C 14,6 C 14,1 C 14,1 C 0,9 C 90 % 89 % 24 % 1015,8 hPa 0,0 l/m 0,0 km/h (0 Bft) O-NO 67 0 min 0,0 UV-I 11,6 C 14,1 C 0,0 km/h (0 Bft)
15.07.2014 06:15 13,2 C 24,9 C 14,7 C 14,1 C 14,1 C 0,9 C 90 % 89 % 24 % 1015,8 hPa 0,0 l/m 0,0 km/h (0 Bft) NO 45 0 min 0,0 UV-I 11,6 C 14,1 C 0,0 km/h (0 Bft)
15.07.2014 06:20 13,4 C 24,9 C 14,7 C 14,1 C 14,1 C 0,7 C 90 % 89 % 18 % 1015,8 hPa 0,0 l/m 0,0 km/h (0 Bft) O-NO 67 0 min 0,0 UV-I 11,8 C 14,1 C 0,0 km/h (0 Bft)
15.07.2014 06:25 13,5 C 24,9 C 14,8 C 14,2 C 14,2 C 0,7 C 90 % 89 % 18 % 1015,8 hPa 0,0 l/m 0,0 km/h (0 Bft) O-NO 67 0 min 0,0 UV-I 11,9 C 14,2 C 0,0 km/h (0 Bft)
15.07.2014 06:30 13,5 C 24,9 C 14,9 C 14,4 C 14,4 C 0,9 C 90 % 89 % 24 % 1015,8 hPa 0,0 l/m 0,0 km/h (0 Bft) O-NO 67 0 min 0,0 UV-I 11,9 C 14,4 C 0,0 km/h (0 Bft)
15.07.2014 06:35 13,6 C 24,9 C 14,9 C 14,5 C 14,5 C 0,9 C 90 % 89 % 24 % 1016,1 hPa 0,0 l/m 0,0 km/h (0 Bft) O-NO 67 0 min 0,0 UV-I 12,0 C 14,5 C 0,0 km/h (0 Bft)
15.07.2014 06:40 13,6 C 24,9 C 15,0 C 14,7 C 14,7 C 1,1 C 90 % 89 % 29 % 1016,1 hPa 0,0 l/m 0,0 km/h (0 Bft) O-NO 67 0 min 0,0 UV-I 12,0 C 14,7 C 0,0 km/h (0 Bft)
15.07.2014 06:45 13,7 C 24,9 C 15,1 C 14,7 C 14,7 C 1,0 C 90 % 89 % 26 % 1016,1 hPa 0,0 l/m 0,0 km/h (0 Bft) O 90 0 min 0,0 UV-I 12,1 C 14,7 C 0,0 km/h (0 Bft)
15.07.2014 06:50 13,9 C 24,9 C 15,1 C 14,7 C 14,7 C 0,8 C 90 % 89 % 21 % 1016,1 hPa 0,0 l/m 0,0 km/h (0 Bft) W-SW 247 0 min 0,0 UV-I 12,3 C 14,7 C 0,0 km/h (0 Bft)
15.07.2014 06:55 13,9 C 24,9 C 15,2 C 14,8 C 14,8 C 0,9 C 90 % 89 % 24 % 1016,4 hPa 0,0 l/m 0,0 km/h (0 Bft) W-SW 247 0 min 0,0 UV-I 12,3 C 14,8 C 0,0 km/h (0 Bft)
15.07.2014 07:00 13,8 C 24,9 C 15,2 C 15,0 C 15,0 C 1,2 C 90 % 89 % 32 % 1016,4 hPa 0,0 l/m 0,0 km/h (0 Bft) N-NO 22 0 min 0,0 UV-I 12,2 C 15,0 C 0,0 km/h (0 Bft)
15.07.2014 07:05 13,9 C 24,9 C 15,4 C 15,1 C 15,1 C 1,2 C 90 % 89 % 32 % 1016,4 hPa 0,0 l/m 0,0 km/h (0 Bft) S-SW 202 0 min 0,0 UV-I 12,3 C 15,1 C 0,0 km/h (0 Bft)
15.07.2014 07:10 14,0 C 24,9 C 15,7 C 16,2 C 16,2 C 2,2 C 90 % 89 % 58 % 1016,4 hPa 0,0 l/m 0,0 km/h (0 Bft) S-SO 157 0 min 0,0 UV-I 12,4 C 16,2 C 0,0 km/h (0 Bft)
15.07.2014 07:15 14,1 C 24,9 C 15,8 C 17,4 C 17,4 C 3,3 C 91 % 88 % 87 % 1016,4 hPa 0,0 l/m 0,0 km/h (0 Bft) S-SW 202 5 min 0,0 UV-I 12,7 C 17,4 C 0,0 km/h (0 Bft)
15.07.2014 07:20 14,3 C 24,9 C 15,9 C 17,3 C 17,3 C 3,0 C 91 % 88 % 79 % 1016,4 hPa 0,0 l/m 0,0 km/h (0 Bft) S 180 5 min 0,0 UV-I 12,8 C 17,3 C 0,0 km/h (0 Bft)
15.07.2014 07:25 14,5 C 24,9 C 15,9 C 17,2 C 17,2 C 2,7 C 91 % 88 % 71 % 1016,4 hPa 0,0 l/m 0,0 km/h (0 Bft) SW 225 0 min 0,0 UV-I 13,0 C 17,2 C 0,0 km/h (0 Bft)
15.07.2014 07:30 14,7 C 24,9 C 16,3 C 18,6 C 18,6 C 3,9 C 91 % 88 % 100 % 1016,4 hPa 0,0 l/m 0,0 km/h (0 Bft) S 180 5 min 0,0 UV-I 13,2 C 18,6 C 0,0 km/h (0 Bft)
15.07.2014 07:35 14,8 C 24,9 C 16,5 C 20,5 C 20,5 C 5,7 C 91 % 89 % 100 % 1016,4 hPa 0,0 l/m 0,0 km/h (0 Bft) W-SW 247 5 min 0,0 UV-I 13,3 C 20,5 C 0,0 km/h (0 Bft)
15.07.2014 07:40 15,1 C 24,9 C 16,8 C 22,7 C 22,7 C 7,6 C 91 % 88 % 100 % 1016,4 hPa 0,0 l/m 0,0 km/h (0 Bft) S 180 5 min 0,0 UV-I 13,6 C 22,7 C 0,0 km/h (0 Bft)
15.07.2014 07:45 15,5 C 24,9 C 17,0 C 23,5 C 23,5 C 8,0 C 92 % 88 % 100 % 1016,4 hPa 0,0 l/m 0,2 km/h (0 Bft) W-SW 247 5 min 0,0 UV-I 14,2 C 23,5 C 0,0 km/h (0 Bft)
15.07.2014 07:50 15,9 C 24,9 C 17,3 C 24,9 C 24,9 C 9,0 C 92 % 88 % 100 % 1016,4 hPa 0,0 l/m 0,3 km/h (0 Bft) SW 225 5 min 0,0 UV-I 14,6 C 24,9 C 0,0 km/h (0 Bft)
15.07.2014 07:55 16,2 C 24,9 C 17,5 C 25,5 C 25,5 C 9,3 C 92 % 88 % 100 % 1016,8 hPa 0,0 l/m 0,2 km/h (0 Bft) S 180 5 min 0,0 UV-I 14,9 C 25,5 C 0,0 km/h (0 Bft)
15.07.2014 08:00 16,5 C 24,9 C 17,7 C 24,5 C 24,5 C 8,0 C 91 % 87 % 100 % 1016,8 hPa 0,0 l/m 0,2 km/h (0 Bft) W-SW 247 5 min 0,0 UV-I 15,0 C 24,5 C 0,0 km/h (0 Bft)
15.07.2014 08:05 16,7 C 24,9 C 17,7 C 24,4 C 24,4 C 7,7 C 91 % 87 % 100 % 1016,8 hPa 0,0 l/m 0,2 km/h (0 Bft) SW 225 5 min 0,0 UV-I 15,2 C 24,4 C 0,0 km/h (0 Bft)
15.07.2014 08:10 16,9 C 24,9 C 17,9 C 23,2 C 23,2 C 6,3 C 90 % 87 % 100 % 1016,8 hPa 0,0 l/m 0,2 km/h (0 Bft) S 180 5 min 0,0 UV-I 15,2 C 23,2 C 0,0 km/h (0 Bft)
15.07.2014 08:15 17,1 C 24,9 C 18,0 C 22,7 C 22,7 C 5,6 C 89 % 87 % 100 % 1016,9 hPa 0,0 l/m 0,2 km/h (0 Bft) SW 225 5 min 0,0 UV-I 15,3 C 22,7 C 0,0 km/h (0 Bft)
15.07.2014 08:20 17,2 C 24,9 C 18,3 C 22,6 C 22,6 C 5,4 C 89 % 87 % 100 % 1016,9 hPa 0,0 l/m 0,0 km/h (0 Bft) W-SW 247 5 min 0,0 UV-I 15,4 C 22,6 C 0,0 km/h (0 Bft)
15.07.2014 08:25 17,3 C 24,9 C 18,4 C 22,4 C 22,4 C 5,1 C 88 % 87 % 100 % 1016,9 hPa 0,0 l/m 0,0 km/h (0 Bft) SW 225 5 min 0,0 UV-I 15,3 C 22,4 C 0,0 km/h (0 Bft)
15.07.2014 08:30 17,6 C 24,9 C 18,5 C 22,2 C 22,2 C 4,6 C 88 % 86 % 100 % 1016,9 hPa 0,0 l/m 0,0 km/h (0 Bft) S-SW 202 5 min 0,0 UV-I 15,6 C 22,2 C 1,8 km/h (1 Bft)
15.07.2014 08:35 17,7 C 24,9 C 18,5 C 21,9 C 21,9 C 4,2 C 87 % 86 % 100 % 1016,9 hPa 0,0 l/m 0,2 km/h (0 Bft) W-SW 247 5 min 0,0 UV-I 15,5 C 21,9 C 0,0 km/h (0 Bft)
15.07.2014 08:40 18,0 C 24,9 C 18,7 C 21,6 C 21,6 C 3,6 C 86 % 86 % 95 % 1016,9 hPa 0,0 l/m 0,2 km/h (0 Bft) O 90 5 min 0,0 UV-I 15,6 C 21,6 C 0,0 km/h (0 Bft)
15.07.2014 08:45 18,3 C 24,9 C 18,6 C 21,5 C 21,5 C 3,2 C 85 % 85 % 84 % 1016,9 hPa 0,0 l/m 0,0 km/h (0 Bft) S-SO 157 0 min 0,0 UV-I 15,7 C 21,5 C 0,0 km/h (0 Bft)
15.07.2014 08:50 18,5 C 24,9 C 18,7 C 21,5 C 21,5 C 3,0 C 84 % 85 % 79 % 1016,9 hPa 0,0 l/m 0,0 km/h (0 Bft) SW 225 0 min 0,0 UV-I 15,7 C 21,5 C 0,0 km/h (0 Bft)
15.07.2014 08:55 18,7 C 24,9 C 18,6 C 21,3 C 21,3 C 2,6 C 84 % 85 % 68 % 1017,1 hPa 0,0 l/m 0,0 km/h (0 Bft) S-SW 202 0 min 0,0 UV-I 15,9 C 21,3 C 0,0 km/h (0 Bft)
15.07.2014 09:00 18,8 C 24,9 C 18,7 C 21,1 C 21,1 C 2,3 C 83 % 85 % 61 % 1017,1 hPa 0,0 l/m 0,0 km/h (0 Bft) W-SW 247 0 min 0,0 UV-I 15,8 C 21,1 C 0,0 km/h (0 Bft)
15.07.2014 09:05 19,1 C 24,9 C 18,7 C 21,0 C 21,0 C 1,9 C 83 % 85 % 50 % 1017,1 hPa 0,0 l/m 0,0 km/h (0 Bft) W-NW 292 0 min 0,0 UV-I 16,1 C 21,0 C 0,0 km/h (0 Bft)
15.07.2014 09:10 19,2 C 24,9 C 18,7 C 21,1 C 21,1 C 1,9 C 82 % 85 % 50 % 1017,1 hPa 0,0 l/m 0,0 km/h (0 Bft) N-NO 22 0 min 0,0 UV-I 16,0 C 21,1 C 0,0 km/h (0 Bft)
15.07.2014 09:15 19,3 C 24,9 C 18,7 C 21,9 C 21,9 C 2,6 C 82 % 85 % 68 % 1017,1 hPa 0,0 l/m 0,0 km/h (0 Bft) W-NW 292 0 min 0,0 UV-I 16,1 C 21,9 C 0,0 km/h (0 Bft)
15.07.2014 09:20 19,6 C 24,9 C 19,1 C 23,8 C 23,8 C 4,2 C 81 % 85 % 100 % 1017,1 hPa 0,0 l/m 0,0 km/h (0 Bft) SW 225 5 min 0,0 UV-I 16,2 C 23,8 C 0,0 km/h (0 Bft)
15.07.2014 09:25 19,8 C 24,9 C 19,1 C 24,1 C 24,1 C 4,3 C 80 % 84 % 100 % 1017,1 hPa 0,0 l/m 0,0 km/h (0 Bft) S 180 5 min 0,0 UV-I 16,2 C 24,1 C 0,0 km/h (0 Bft)
15.07.2014 09:30 20,1 C 24,9 C 19,3 C 24,9 C 24,9 C 4,8 C 79 % 84 % 100 % 1017,1 hPa 0,0 l/m 0,3 km/h (0 Bft) N-NW 337 5 min 0,0 UV-I 16,3 C 24,9 C 3,2 km/h (1 Bft)
15.07.2014 09:35 20,3 C 24,9 C 19,2 C 24,7 C 24,7 C 4,4 C 79 % 84 % 100 % 1016,7 hPa 0,0 l/m 0,6 km/h (0 Bft) N-NW 337 5 min 0,0 UV-I 16,5 C 24,7 C 0,0 km/h (0 Bft)
15.07.2014 09:40 20,3 C 24,9 C 19,2 C 25,1 C 25,1 C 4,8 C 78 % 84 % 100 % 1016,7 hPa 0,0 l/m 0,5 km/h (0 Bft) S 180 5 min 0,0 UV-I 16,3 C 25,1 C 1,6 km/h (1 Bft)
15.07.2014 09:45 20,5 C 24,9 C 19,3 C 25,9 C 25,9 C 5,4 C 78 % 83 % 100 % 1016,7 hPa 0,0 l/m 0,0 km/h (0 Bft) SO 135 5 min 0,0 UV-I 16,5 C 25,9 C 0,0 km/h (0 Bft)
15.07.2014 09:50 20,5 C 24,9 C 19,5 C 28,1 C 28,1 C 7,6 C 77 % 83 % 100 % 1016,7 hPa 0,0 l/m 0,0 km/h (0 Bft) S 180 5 min 0,0 UV-I 16,3 C 28,1 C 0,0 km/h (0 Bft)
15.07.2014 09:55 20,7 C 24,9 C 19,4 C 28,5 C 28,5 C 7,8 C 77 % 83 % 100 % 1016,8 hPa 0,0 l/m 0,0 km/h (0 Bft) N-NO 22 5 min 0,0 UV-I 16,5 C 28,5 C 1,6 km/h (1 Bft)
15.07.2014 10:00 20,9 C 24,9 C 19,5 C 28,8 C 28,8 C 7,9 C 77 % 83 % 100 % 1016,8 hPa 0,0 l/m 0,2 km/h (0 Bft) SW 225 5 min 0,0 UV-I 16,7 C 28,8 C 0,0 km/h (0 Bft)
15.07.2014 10:05 21,0 C 24,9 C 19,5 C 28,3 C 28,3 C 7,3 C 76 % 83 % 100 % 1016,8 hPa 0,0 l/m 0,3 km/h (0 Bft) SW 225 5 min 0,0 UV-I 16,6 C 28,3 C 0,0 km/h (0 Bft)
15.07.2014 10:10 21,0 C 24,9 C 19,7 C 26,9 C 26,9 C 5,9 C 76 % 83 % 100 % 1016,8 hPa 0,0 l/m 0,2 km/h (0 Bft) S 180 5 min 0,0 UV-I 16,6 C 26,9 C 0,0 km/h (0 Bft)
15.07.2014 10:15 21,2 C 24,9 C 19,6 C 27,2 C 27,2 C 6,0 C 76 % 82 % 100 % 1017,1 hPa 0,0 l/m 0,0 km/h (0 Bft) S 180 5 min 0,0 UV-I 16,8 C 27,2 C 0,0 km/h (0 Bft)
15.07.2014 10:20 21,2 C 24,9 C 19,7 C 28,2 C 28,2 C 7,0 C 75 % 82 % 100 % 1017,1 hPa 0,0 l/m 0,5 km/h (0 Bft) S 180 5 min 0,0 UV-I 16,6 C 28,2 C 0,0 km/h (0 Bft)
15.07.2014 10:25 21,2 C 24,9 C 19,9 C 29,4 C 29,4 C 8,2 C 75 % 82 % 100 % 1017,1 hPa 0,0 l/m 0,8 km/h (0 Bft) SW 225 5 min 0,0 UV-I 16,6 C 29,4 C 0,0 km/h (0 Bft)
15.07.2014 10:30 21,3 C 24,9 C 19,9 C 30,1 C 30,1 C 8,8 C 75 % 81 % 100 % 1017,1 hPa 0,0 l/m 0,5 km/h (0 Bft) O-NO 67 5 min 0,0 UV-I 16,7 C 30,1 C 4,3 km/h (1 Bft)
15.07.2014 10:35 21,3 C 24,9 C 20,0 C 30,1 C 30,1 C 8,8 C 74 % 81 % 100 % 1017,2 hPa 0,0 l/m 0,8 km/h (0 Bft) O-SO 112 5 min 0,0 UV-I 16,5 C 30,1 C 1,9 km/h (1 Bft)
15.07.2014 10:40 21,7 C 24,9 C 20,4 C 30,3 C 30,3 C 8,6 C 73 % 80 % 100 % 1017,2 hPa 0,0 l/m 1,3 km/h (1 Bft) O-NO 67 5 min 0,0 UV-I 16,6 C 30,3 C 3,1 km/h (1 Bft)
15.07.2014 10:45 21,7 C 24,9 C 20,7 C 30,0 C 30,0 C 8,3 C 72 % 79 % 100 % 1017,2 hPa 0,0 l/m 1,4 km/h (1 Bft) S-SO 157 5 min 0,0 UV-I 16,4 C 30,0 C 0,0 km/h (0 Bft)
15.07.2014 10:50 22,0 C 24,9 C 20,7 C 31,0 C 31,0 C 9,0 C 73 % 79 % 100 % 1017,2 hPa 0,0 l/m 0,8 km/h (0 Bft) W-SW 247 5 min 0,0 UV-I 16,9 C 31,0 C 0,0 km/h (0 Bft)
15.07.2014 10:55 22,2 C 24,9 C 20,9 C 31,7 C 31,7 C 9,5 C 73 % 79 % 100 % 1016,9 hPa 0,0 l/m 0,5 km/h (0 Bft) SW 225 5 min 0,0 UV-I 17,1 C 31,7 C 1,6 km/h (1 Bft)
15.07.2014 11:00 22,5 C 24,9 C 21,1 C 31,8 C 31,8 C 9,3 C 72 % 79 % 100 % 1016,9 hPa 0,0 l/m 0,8 km/h (0 Bft) O-NO 67 5 min 0,0 UV-I 17,2 C 31,8 C 0,0 km/h (0 Bft)
15.07.2014 11:05 22,7 C 24,9 C 21,2 C 31,1 C 31,1 C 8,4 C 71 % 78 % 100 % 1016,9 hPa 0,0 l/m 0,5 km/h (0 Bft) O-SO 112 5 min 0,0 UV-I 17,2 C 31,1 C 0,0 km/h (0 Bft)
15.07.2014 11:10 22,9 C 24,9 C 21,3 C 31,7 C 31,7 C 8,8 C 70 % 78 % 100 % 1016,9 hPa 0,0 l/m 0,5 km/h (0 Bft) SW 225 5 min 0,0 UV-I 17,1 C 31,7 C 4,7 km/h (1 Bft)
15.07.2014 11:15 23,0 C 24,9 C 21,3 C 31,1 C 31,1 C 8,1 C 69 % 78 % 100 % 1017,2 hPa 0,0 l/m 1,3 km/h (1 Bft) W-SW 247 5 min 0,0 UV-I 17,0 C 31,1 C 3,5 km/h (1 Bft)
15.07.2014 11:20 23,1 C 24,9 C 21,4 C 31,5 C 31,5 C 8,4 C 67 % 75 % 100 % 1017,2 hPa 0,0 l/m 1,4 km/h (1 Bft) S 180 5 min 0,0 UV-I 16,6 C 31,5 C 4,8 km/h (1 Bft)
15.07.2014 11:25 23,1 C 24,9 C 21,4 C 32,2 C 32,2 C 9,1 C 66 % 75 % 100 % 1017,2 hPa 0,0 l/m 0,8 km/h (0 Bft) N-NO 22 5 min 0,0 UV-I 16,4 C 32,2 C 0,0 km/h (0 Bft)
15.07.2014 11:30 23,1 C 24,9 C 21,5 C 31,5 C 31,5 C 8,4 C 66 % 75 % 100 % 1017,2 hPa 0,0 l/m 0,3 km/h (0 Bft) S-SO 157 5 min 0,0 UV-I 16,4 C 31,5 C 2,3 km/h (1 Bft)
15.07.2014 11:35 23,0 C 24,9 C 21,6 C 31,6 C 31,6 C 8,6 C 67 % 75 % 100 % 1017,1 hPa 0,0 l/m 0,3 km/h (0 Bft) W-SW 247 5 min 0,0 UV-I 16,5 C 31,6 C 0,0 km/h (0 Bft)
15.07.2014 11:40 23,3 C 24,9 C 21,6 C 30,8 C 30,8 C 7,5 C 67 % 76 % 100 % 1017,1 hPa 0,0 l/m 1,0 km/h (0 Bft) SW 225 5 min 0,0 UV-I 16,8 C 30,8 C 1,9 km/h (1 Bft)
15.07.2014 11:45 23,2 C 24,9 C 21,5 C 29,3 C 29,3 C 6,1 C 67 % 75 % 100 % 1017,1 hPa 0,0 l/m 1,1 km/h (1 Bft) S 180 5 min 0,0 UV-I 16,7 C 29,3 C 1,9 km/h (1 Bft)
15.07.2014 11:50 23,1 C 24,9 C 21,3 C 27,4 C 27,4 C 4,3 C 67 % 76 % 100 % 1017,1 hPa 0,0 l/m 1,3 km/h (1 Bft) S 180 5 min 0,0 UV-I 16,6 C 27,4 C 2,7 km/h (1 Bft)
15.07.2014 11:55 23,1 C 24,9 C 21,5 C 27,3 C 27,3 C 4,2 C 67 % 76 % 100 % 1017,1 hPa 0,0 l/m 2,1 km/h (1 Bft) W-NW 292 5 min 0,0 UV-I 16,6 C 27,3 C 3,9 km/h (1 Bft)
15.07.2014 12:00 23,3 C 24,9 C 21,8 C 28,8 C 28,8 C 5,5 C 66 % 75 % 100 % 1017,1 hPa 0,0 l/m 1,8 km/h (1 Bft) N-NW 337 5 min 0,0 UV-I 16,6 C 28,8 C 1,9 km/h (1 Bft)
15.07.2014 12:05 23,3 C 24,9 C 22,0 C 30,1 C 30,1 C 6,8 C 65 % 74 % 100 % 1017,1 hPa 0,0 l/m 1,4 km/h (1 Bft) W-NW 292 5 min 0,0 UV-I 16,3 C 30,1 C 2,9 km/h (1 Bft)
15.07.2014 12:10 23,4 C 24,9 C 21,9 C 29,6 C 29,6 C 6,2 C 65 % 73 % 100 % 1017,1 hPa 0,0 l/m 1,3 km/h (1 Bft) W 270 5 min 0,0 UV-I 16,4 C 29,6 C 0,0 km/h (0 Bft)
15.07.2014 12:15 23,5 C 24,9 C 21,9 C 28,8 C 28,8 C 5,3 C 64 % 73 % 100 % 1016,9 hPa 0,0 l/m 1,0 km/h (0 Bft) SW 225 5 min 0,0 UV-I 16,3 C 28,8 C 2,1 km/h (1 Bft)
15.07.2014 12:20 23,5 C 24,9 C 21,9 C 28,0 C 28,0 C 4,5 C 63 % 73 % 100 % 1016,9 hPa 0,0 l/m 0,6 km/h (0 Bft) S-SW 202 5 min 0,0 UV-I 16,0 C 28,0 C 2,4 km/h (1 Bft)
15.07.2014 12:25 23,6 C 24,9 C 22,0 C 28,4 C 28,4 C 4,8 C 63 % 74 % 100 % 1016,9 hPa 0,0 l/m 1,0 km/h (0 Bft) SW 225 5 min 0,0 UV-I 16,1 C 28,4 C 0,0 km/h (0 Bft)
15.07.2014 12:30 23,8 C 24,9 C 22,0 C 28,6 C 28,6 C 4,8 C 62 % 72 % 100 % 1016,9 hPa 0,0 l/m 1,1 km/h (1 Bft) O-SO 112 5 min 0,0 UV-I 16,1 C 28,6 C 2,1 km/h (1 Bft)
15.07.2014 12:35 23,9 C 24,9 C 22,2 C 28,8 C 28,8 C 4,9 C 63 % 73 % 100 % 1017,1 hPa 0,0 l/m 0,8 km/h (0 Bft) W-SW 247 5 min 0,0 UV-I 16,4 C 28,8 C 0,0 km/h (0 Bft)
15.07.2014 12:40 24,1 C 24,9 C 22,3 C 28,5 C 28,5 C 4,4 C 62 % 73 % 100 % 1017,1 hPa 0,0 l/m 0,6 km/h (0 Bft) S 180 5 min 0,0 UV-I 16,4 C 28,5 C 0,0 km/h (0 Bft)
15.07.2014 12:45 24,2 C 24,9 C 22,3 C 29,1 C 29,1 C 4,9 C 60 % 73 % 100 % 1017,1 hPa 0,0 l/m 0,6 km/h (0 Bft) W-NW 292 5 min 0,0 UV-I 15,9 C 29,1 C 2,3 km/h (1 Bft)
15.07.2014 12:50 24,7 C 24,9 C 22,4 C 30,2 C 30,2 C 5,5 C 61 % 71 % 100 % 1017,1 hPa 0,0 l/m 0,6 km/h (0 Bft) S 180 5 min 0,0 UV-I 16,7 C 30,2 C 0,0 km/h (0 Bft)
15.07.2014 12:55 25,2 C 24,9 C 22,4 C 31,0 C 31,0 C 5,8 C 60 % 71 % 100 % 1016,9 hPa 0,0 l/m 0,6 km/h (0 Bft) S-SW 202 5 min 0,0 UV-I 16,9 C 31,0 C 3,9 km/h (1 Bft)
15.07.2014 13:00 25,7 C 24,9 C 22,6 C 31,3 C 31,3 C 5,6 C 59 % 70 % 100 % 1016,9 hPa 0,0 l/m 0,6 km/h (0 Bft) W-NW 292 5 min 0,0 UV-I 17,1 C 31,3 C 0,0 km/h (0 Bft)
15.07.2014 13:05 26,1 C 24,9 C 22,9 C 31,7 C 31,7 C 5,6 C 57 % 70 % 100 % 1016,9 hPa 0,0 l/m 0,8 km/h (0 Bft) W-SW 247 5 min 0,1 UV-I 16,9 C 31,7 C 3,2 km/h (1 Bft)
15.07.2014 13:10 26,3 C 24,9 C 22,9 C 31,4 C 31,4 C 5,1 C 54 % 70 % 100 % 1016,9 hPa 0,0 l/m 0,6 km/h (0 Bft) N-NW 337 5 min 0,1 UV-I 16,2 C 31,4 C 0,0 km/h (0 Bft)
15.07.2014 13:15 26,0 C 24,9 C 22,9 C 30,9 C 30,9 C 4,9 C 54 % 70 % 100 % 1016,9 hPa 0,0 l/m 0,5 km/h (0 Bft) NW 315 5 min 0,1 UV-I 16,0 C 30,9 C 1,6 km/h (1 Bft)
15.07.2014 13:20 25,7 C 24,9 C 22,9 C 29,6 C 29,6 C 3,9 C 53 % 68 % 100 % 1016,9 hPa 0,0 l/m 0,5 km/h (0 Bft) W-SW 247 5 min 0,0 UV-I 15,4 C 29,6 C 1,8 km/h (1 Bft)
15.07.2014 13:25 25,5 C 24,9 C 22,9 C 29,1 C 29,1 C 3,6 C 54 % 67 % 95 % 1016,9 hPa 0,0 l/m 0,8 km/h (0 Bft) W 270 5 min 0,0 UV-I 15,5 C 29,1 C 2,1 km/h (1 Bft)
15.07.2014 13:30 25,5 C 24,9 C 22,9 C 28,3 C 28,3 C 2,8 C 55 % 68 % 74 % 1016,9 hPa 0,0 l/m 0,8 km/h (0 Bft) S 180 0 min 0,0 UV-I 15,8 C 28,3 C 0,0 km/h (0 Bft)
15.07.2014 13:35 25,5 C 24,9 C 23,0 C 28,8 C 28,8 C 3,3 C 56 % 68 % 87 % 1016,8 hPa 0,0 l/m 0,8 km/h (0 Bft) W-SW 247 5 min 0,0 UV-I 16,1 C 28,8 C 2,3 km/h (1 Bft)
15.07.2014 13:40 25,8 C 24,9 C 23,0 C 29,2 C 29,2 C 3,4 C 55 % 68 % 89 % 1016,8 hPa 0,0 l/m 0,5 km/h (0 Bft) NO 45 5 min 0,0 UV-I 16,1 C 29,2 C 0,0 km/h (0 Bft)
15.07.2014 13:45 26,0 C 24,9 C 23,2 C 29,3 C 29,3 C 3,3 C 55 % 68 % 87 % 1016,8 hPa 0,0 l/m 0,3 km/h (0 Bft) N-NO 22 5 min 0,0 UV-I 16,2 C 29,3 C 1,6 km/h (1 Bft)
15.07.2014 13:50 26,3 C 24,9 C 23,1 C 29,3 C 29,3 C 3,0 C 54 % 66 % 79 % 1016,8 hPa 0,0 l/m 0,0 km/h (0 Bft) O-NO 67 0 min 0,0 UV-I 16,2 C 29,3 C 0,0 km/h (0 Bft)
15.07.2014 13:55 26,1 C 24,9 C 23,1 C 28,8 C 28,8 C 2,7 C 53 % 66 % 71 % 1017,0 hPa 0,0 l/m 0,2 km/h (0 Bft) W 270 0 min 0,0 UV-I 15,8 C 28,8 C 1,9 km/h (1 Bft)
15.07.2014 14:00 26,0 C 24,9 C 23,1 C 28,4 C 28,4 C 2,4 C 53 % 66 % 63 % 1017,0 hPa 0,0 l/m 0,2 km/h (0 Bft) N-NO 22 0 min 0,0 UV-I 15,7 C 28,4 C 0,0 km/h (0 Bft)
15.07.2014 14:05 26,0 C 24,9 C 23,1 C 28,2 C 28,2 C 2,2 C 53 % 66 % 58 % 1017,0 hPa 0,0 l/m 0,2 km/h (0 Bft) N-NO 22 0 min 0,0 UV-I 15,7 C 28,2 C 0,0 km/h (0 Bft)
15.07.2014 14:10 26,0 C 24,9 C 23,5 C 29,1 C 29,1 C 3,1 C 55 % 67 % 82 % 1017,0 hPa 0,0 l/m 0,0 km/h (0 Bft) NW 315 0 min 0,0 UV-I 16,2 C 29,1 C 0,0 km/h (0 Bft)
15.07.2014 14:15 26,3 C 24,9 C 23,5 C 30,7 C 30,7 C 4,4 C 56 % 68 % 100 % 1016,9 hPa 0,0 l/m 0,0 km/h (0 Bft) SO 135 5 min 0,0 UV-I 16,8 C 30,7 C 1,8 km/h (1 Bft)
15.07.2014 14:20 26,2 C 24,9 C 23,7 C 31,5 C 31,5 C 5,3 C 54 % 66 % 100 % 1016,9 hPa 0,0 l/m 0,5 km/h (0 Bft) SW 225 5 min 0,1 UV-I 16,1 C 31,5 C 2,7 km/h (1 Bft)
15.07.2014 14:25 26,3 C 24,9 C 23,7 C 31,0 C 31,0 C 4,7 C 53 % 66 % 100 % 1016,9 hPa 0,0 l/m 0,5 km/h (0 Bft) O-NO 67 5 min 0,1 UV-I 15,9 C 31,0 C 0,0 km/h (0 Bft)
15.07.2014 14:30 26,3 C 24,9 C 23,5 C 30,2 C 30,2 C 3,9 C 53 % 66 % 100 % 1016,9 hPa 0,0 l/m 0,3 km/h (0 Bft) N-NO 22 5 min 0,0 UV-I 15,9 C 30,2 C 0,0 km/h (0 Bft)
15.07.2014 14:35 26,5 C 24,9 C 23,6 C 31,3 C 31,3 C 4,8 C 54 % 65 % 100 % 1016,6 hPa 0,0 l/m 0,3 km/h (0 Bft) SO 135 5 min 0,1 UV-I 16,4 C 31,3 C 2,1 km/h (1 Bft)
15.07.2014 14:40 26,7 C 24,9 C 23,9 C 32,3 C 32,3 C 5,6 C 53 % 64 % 100 % 1016,6 hPa 0,0 l/m 0,5 km/h (0 Bft) S 180 5 min 0,1 UV-I 16,3 C 32,3 C 0,0 km/h (0 Bft)
15.07.2014 14:45 26,9 C 24,9 C 23,8 C 32,5 C 32,5 C 5,6 C 52 % 65 % 100 % 1016,6 hPa 0,0 l/m 0,5 km/h (0 Bft) W 270 5 min 0,1 UV-I 16,2 C 32,5 C 2,1 km/h (1 Bft)
15.07.2014 14:50 26,9 C 24,9 C 23,6 C 31,0 C 31,0 C 4,1 C 51 % 63 % 100 % 1016,6 hPa 0,0 l/m 0,8 km/h (0 Bft) NO 45 5 min 0,1 UV-I 15,9 C 31,0 C 2,9 km/h (1 Bft)
15.07.2014 14:55 26,6 C 24,9 C 23,7 C 30,1 C 30,1 C 3,5 C 50 % 63 % 92 % 1016,4 hPa 0,0 l/m 1,3 km/h (1 Bft) N-NO 22 5 min 0,1 UV-I 15,3 C 30,1 C 0,0 km/h (0 Bft)
15.07.2014 15:00 26,2 C 24,9 C 24,1 C 30,6 C 30,6 C 4,4 C 49 % 63 % 100 % 1016,4 hPa 0,0 l/m 2,1 km/h (1 Bft) O-NO 67 5 min 0,1 UV-I 14,6 C 30,6 C 5,8 km/h (2 Bft)
15.07.2014 15:05 25,9 C 24,9 C 24,3 C 30,9 C 30,9 C 5,0 C 51 % 62 % 100 % 1016,4 hPa 0,0 l/m 2,3 km/h (1 Bft) O-NO 67 5 min 0,1 UV-I 15,0 C 30,9 C 0,0 km/h (0 Bft)
15.07.2014 15:10 26,3 C 24,9 C 24,6 C 32,6 C 32,6 C 6,3 C 51 % 62 % 100 % 1016,4 hPa 0,0 l/m 1,8 km/h (1 Bft) S-SW 202 5 min 0,1 UV-I 15,3 C 32,6 C 3,5 km/h (1 Bft)
15.07.2014 15:15 26,8 C 24,9 C 24,8 C 33,5 C 33,5 C 6,7 C 51 % 62 % 100 % 1016,2 hPa 0,0 l/m 1,1 km/h (1 Bft) SW 225 5 min 0,1 UV-I 15,8 C 33,5 C 2,1 km/h (1 Bft)
15.07.2014 15:16 27,6 C 0,0 C 25,1 C 34,3 C 34,3 C 6,7 C 48 % 61 % 100 % 1016,2 hPa 0,0 l/m 1,1 km/h (1 Bft) S 180 1 min 0,1 UV-I 15,6 C 34,3 C 4,3 km/h (1 Bft)
15.07.2014 15:21 27,7 C 0,0 C 25,0 C 34,1 C 34,1 C 6,4 C 48 % 59 % 100 % 1016,2 hPa 0,0 l/m 1,3 km/h (1 Bft) W 270 5 min 0,1 UV-I 15,7 C 34,1 C 0,0 km/h (0 Bft)
15.07.2014 15:26 27,7 C 0,0 C 25,1 C 33,9 C 33,9 C 6,2 C 48 % 60 % 100 % 1016,2 hPa 0,0 l/m 2,1 km/h (1 Bft) S 180 5 min 0,1 UV-I 15,7 C 33,9 C 3,4 km/h (1 Bft)
15.07.2014 15:31 28,3 C 0,0 C 25,3 C 34,0 C 34,0 C 5,7 C 48 % 61 % 100 % 1016,2 hPa 0,0 l/m 1,9 km/h (1 Bft) W 270 5 min 0,1 UV-I 16,2 C 34,0 C 3,4 km/h (1 Bft)
15.07.2014 15:36 28,6 C 0,0 C 25,5 C 33,6 C 33,6 C 5,0 C 46 % 60 % 100 % 1016,2 hPa 0,0 l/m 2,6 km/h (1 Bft) SW 225 5 min 0,1 UV-I 15,8 C 33,6 C 1,8 km/h (1 Bft)
15.07.2014 15:41 28,9 C 0,0 C 25,3 C 33,4 C 33,4 C 4,5 C 45 % 60 % 100 % 1016,2 hPa 0,0 l/m 3,4 km/h (1 Bft) SW 225 5 min 0,1 UV-I 15,8 C 33,4 C 3,7 km/h (1 Bft)
15.07.2014 15:46 29,3 C 0,0 C 25,3 C 33,1 C 33,1 C 3,8 C 44 % 59 % 100 % 1016,2 hPa 0,0 l/m 2,9 km/h (1 Bft) S-SW 202 5 min 0,1 UV-I 15,8 C 33,1 C 4,8 km/h (1 Bft)
15.07.2014 15:51 29,2 C 0,0 C 25,2 C 32,4 C 32,4 C 3,2 C 43 % 59 % 84 % 1016,2 hPa 0,0 l/m 2,4 km/h (1 Bft) O-NO 67 0 min 0,1 UV-I 15,3 C 32,4 C 0,0 km/h (0 Bft)
15.07.2014 15:56 28,7 C 0,0 C 25,1 C 31,7 C 31,7 C 3,0 C 44 % 59 % 79 % 1016,2 hPa 0,0 l/m 1,6 km/h (1 Bft) S 180 0 min 0,1 UV-I 15,2 C 31,7 C 2,1 km/h (1 Bft)
15.07.2014 16:01 28,7 C 0,0 C 25,3 C 32,4 C 32,4 C 3,7 C 44 % 59 % 97 % 1016,2 hPa 0,0 l/m 1,4 km/h (1 Bft) S 180 5 min 0,0 UV-I 15,2 C 32,4 C 4,0 km/h (1 Bft)
15.07.2014 16:06 29,3 C 0,0 C 25,4 C 33,2 C 33,2 C 3,9 C 44 % 59 % 100 % 1016,2 hPa 0,0 l/m 1,8 km/h (1 Bft) SW 225 5 min 0,1 UV-I 15,8 C 33,2 C 2,9 km/h (1 Bft)
15.07.2014 16:11 29,6 C 0,0 C 25,5 C 33,3 C 33,3 C 3,7 C 44 % 59 % 97 % 1016,2 hPa 0,0 l/m 2,1 km/h (1 Bft) S 180 5 min 0,0 UV-I 16,0 C 33,3 C 2,9 km/h (1 Bft)
15.07.2014 16:16 29,7 C 0,0 C 25,5 C 33,0 C 33,0 C 3,3 C 43 % 60 % 87 % 1016,2 hPa 0,0 l/m 2,3 km/h (1 Bft) S-SW 202 5 min 0,0 UV-I 15,8 C 33,0 C 2,7 km/h (1 Bft)
15.07.2014 16:45 28,1 C 0,0 C 25,5 C 32,1 C 32,1 C 4,0 C 45 % 59 % 100 % 1016,2 hPa 0,0 l/m 3,7 km/h (1 Bft) W-SW 247 29 min 0,0 UV-I 15,0 C 32,1 C 5,1 km/h (1 Bft)
15.07.2014 16:50 27,9 C 0,0 C 25,7 C 32,3 C 32,3 C 4,4 C 45 % 59 % 100 % 1016,2 hPa 0,0 l/m 2,9 km/h (1 Bft) NO 45 5 min 0,1 UV-I 14,8 C 32,3 C 0,0 km/h (0 Bft)
15.07.2014 16:55 27,9 C 0,0 C 25,7 C 32,3 C 32,3 C 4,4 C 45 % 57 % 100 % 1015,9 hPa 0,0 l/m 2,1 km/h (1 Bft) W 270 5 min 0,1 UV-I 14,8 C 32,3 C 1,8 km/h (1 Bft)
15.07.2014 17:00 27,7 C 0,0 C 25,2 C 31,5 C 31,5 C 3,8 C 46 % 59 % 100 % 1015,9 hPa 0,0 l/m 1,4 km/h (1 Bft) S-SW 202 5 min 0,1 UV-I 15,0 C 31,5 C 4,8 km/h (1 Bft)
15.07.2014 17:05 27,6 C 0,0 C 25,5 C 31,8 C 31,8 C 4,2 C 46 % 59 % 100 % 1015,9 hPa 0,0 l/m 2,1 km/h (1 Bft) W-NW 292 5 min 0,0 UV-I 14,9 C 31,8 C 3,1 km/h (1 Bft)
15.07.2014 17:10 27,5 C 0,0 C 25,3 C 31,4 C 31,4 C 3,9 C 46 % 59 % 100 % 1015,9 hPa 0,0 l/m 2,4 km/h (1 Bft) W-SW 247 5 min 0,0 UV-I 14,8 C 31,4 C 2,9 km/h (1 Bft)
15.07.2014 17:15 27,2 C 0,0 C 25,1 C 30,6 C 30,6 C 3,4 C 46 % 59 % 89 % 1015,9 hPa 0,0 l/m 1,8 km/h (1 Bft) W-SW 247 5 min 0,0 UV-I 14,6 C 30,6 C 4,7 km/h (1 Bft)
15.07.2014 17:20 27,1 C 0,0 C 24,9 C 29,9 C 29,9 C 2,8 C 47 % 60 % 74 % 1015,9 hPa 0,0 l/m 2,1 km/h (1 Bft) W-SW 247 0 min 0,0 UV-I 14,8 C 29,9 C 5,8 km/h (2 Bft)
15.07.2014 17:25 26,9 C 0,0 C 25,1 C 30,1 C 30,1 C 3,2 C 47 % 60 % 84 % 1015,9 hPa 0,0 l/m 2,9 km/h (1 Bft) S-SW 202 0 min 0,0 UV-I 14,6 C 30,1 C 2,7 km/h (1 Bft)
15.07.2014 17:30 27,1 C 0,0 C 25,3 C 31,2 C 31,2 C 4,1 C 48 % 59 % 100 % 1015,9 hPa 0,0 l/m 2,7 km/h (1 Bft) W 270 5 min 0,0 UV-I 15,1 C 31,2 C 5,0 km/h (1 Bft)
15.07.2014 17:35 27,1 C 0,0 C 25,2 C 31,7 C 31,7 C 4,6 C 48 % 58 % 100 % 1016,0 hPa 0,0 l/m 2,1 km/h (1 Bft) S 180 5 min 0,0 UV-I 15,1 C 31,7 C 1,8 km/h (1 Bft)
15.07.2014 17:40 27,1 C 0,0 C 25,3 C 31,6 C 31,6 C 4,5 C 47 % 58 % 100 % 1016,0 hPa 0,0 l/m 2,1 km/h (1 Bft) SO 135 5 min 0,0 UV-I 14,8 C 31,6 C 0,0 km/h (0 Bft)
15.07.2014 17:45 27,0 C 0,0 C 25,3 C 31,7 C 31,7 C 4,7 C 47 % 57 % 100 % 1016,0 hPa 0,0 l/m 1,9 km/h (1 Bft) W-SW 247 5 min 0,0 UV-I 14,7 C 31,7 C 3,1 km/h (1 Bft)
15.07.2014 17:50 27,0 C 0,0 C 25,2 C 32,2 C 32,2 C 5,2 C 47 % 58 % 100 % 1016,0 hPa 0,0 l/m 1,9 km/h (1 Bft) W-SW 247 5 min 0,0 UV-I 14,7 C 32,2 C 2,7 km/h (1 Bft)
15.07.2014 17:55 27,0 C 0,0 C 25,3 C 32,4 C 32,4 C 5,4 C 48 % 58 % 100 % 1015,9 hPa 0,0 l/m 2,6 km/h (1 Bft) S 180 5 min 0,1 UV-I 15,0 C 32,4 C 3,4 km/h (1 Bft)
15.07.2014 18:00 26,8 C 0,0 C 25,3 C 31,8 C 31,8 C 5,0 C 48 % 60 % 100 % 1015,9 hPa 0,0 l/m 2,9 km/h (1 Bft) S-SW 202 5 min 0,0 UV-I 14,9 C 31,8 C 0,0 km/h (0 Bft)
15.07.2014 18:05 26,9 C 0,0 C 25,1 C 31,4 C 31,4 C 4,5 C 48 % 60 % 100 % 1015,9 hPa 0,0 l/m 2,9 km/h (1 Bft) W-SW 247 5 min 0,1 UV-I 14,9 C 31,4 C 2,7 km/h (1 Bft)
15.07.2014 18:10 26,7 C 0,0 C 25,0 C 30,9 C 30,9 C 4,2 C 48 % 60 % 100 % 1015,9 hPa 0,0 l/m 2,7 km/h (1 Bft) S-SO 157 5 min 0,0 UV-I 14,8 C 30,9 C 3,1 km/h (1 Bft)
15.07.2014 18:15 26,7 C 0,0 C 25,0 C 31,0 C 31,0 C 4,3 C 49 % 61 % 100 % 1016,0 hPa 0,0 l/m 2,3 km/h (1 Bft) N 360 5 min 0,0 UV-I 15,1 C 31,0 C 2,1 km/h (1 Bft)
15.07.2014 18:20 26,7 C 0,0 C 25,1 C 31,3 C 31,3 C 4,6 C 48 % 60 % 100 % 1016,0 hPa 0,0 l/m 1,9 km/h (1 Bft) W-SW 247 5 min 0,0 UV-I 14,8 C 31,3 C 6,0 km/h (2 Bft)
15.07.2014 18:25 26,7 C 0,0 C 25,0 C 31,0 C 31,0 C 4,3 C 48 % 60 % 100 % 1016,0 hPa 0,0 l/m 2,6 km/h (1 Bft) SW 225 5 min 0,0 UV-I 14,8 C 31,0 C 2,9 km/h (1 Bft)
15.07.2014 18:30 26,7 C 0,0 C 25,0 C 31,3 C 31,3 C 4,6 C 49 % 60 % 100 % 1016,0 hPa 0,0 l/m 1,8 km/h (1 Bft) N 360 5 min 0,0 UV-I 15,1 C 31,3 C 2,3 km/h (1 Bft)
15.07.2014 18:35 26,7 C 0,0 C 25,1 C 31,6 C 31,6 C 4,9 C 49 % 60 % 100 % 1015,9 hPa 0,0 l/m 1,8 km/h (1 Bft) SO 135 5 min 0,0 UV-I 15,1 C 31,6 C 4,2 km/h (1 Bft)
15.07.2014 18:41 26,7 C 0,0 C 25,1 C 31,6 C 31,6 C 4,9 C 49 % 59 % 100 % 1015,9 hPa 0,0 l/m 2,9 km/h (1 Bft) N 0 6 min 0,0 UV-I 15,1 C 31,6 C 3,2 km/h (1 Bft)
15.07.2014 19:00 26,6 C 0,0 C 25,1 C 31,8 C 31,8 C 5,2 C 48 % 60 % 100 % 1015,9 hPa 0,0 l/m 2,3 km/h (1 Bft) W-SW 247 19 min 0,0 UV-I 14,7 C 31,8 C 0,0 km/h (0 Bft)
15.07.2014 19:01 26,6 C 0,0 C 25,1 C 31,8 C 31,8 C 5,2 C 48 % 60 % 100 % 1015,9 hPa 0,0 l/m 2,3 km/h (1 Bft) W-SW 247 1 min 0,0 UV-I 14,7 C 31,8 C 0,0 km/h (0 Bft)
15.07.2014 19:05 26,8 C 0,0 C 25,1 C 31,9 C 31,9 C 5,1 C 47 % 58 % 100 % 1015,9 hPa 0,0 l/m 1,0 km/h (0 Bft) W-SW 247 4 min 0,0 UV-I 14,5 C 31,9 C 0,0 km/h (0 Bft)
15.07.2014 19:10 27,1 C 0,0 C 25,0 C 32,1 C 32,1 C 5,0 C 48 % 59 % 100 % 1015,9 hPa 0,0 l/m 1,3 km/h (1 Bft) W-SW 247 5 min 0,0 UV-I 15,1 C 32,1 C 6,0 km/h (2 Bft)
15.07.2014 19:15 26,9 C 0,0 C 24,9 C 31,8 C 31,8 C 4,9 C 48 % 60 % 100 % 1016,1 hPa 0,0 l/m 1,8 km/h (1 Bft) N 360 5 min 0,0 UV-I 14,9 C 31,8 C 1,9 km/h (1 Bft)
15.07.2014 19:20 26,9 C 0,0 C 24,8 C 31,3 C 31,3 C 4,4 C 48 % 58 % 100 % 1016,1 hPa 0,0 l/m 1,6 km/h (1 Bft) N-NO 22 5 min 0,0 UV-I 14,9 C 31,3 C 0,0 km/h (0 Bft)
15.07.2014 19:25 26,9 C 0,0 C 24,7 C 30,2 C 30,2 C 3,3 C 49 % 59 % 87 % 1016,1 hPa 0,0 l/m 0,6 km/h (0 Bft) NW 315 5 min 0,0 UV-I 15,3 C 30,2 C 0,0 km/h (0 Bft)
15.07.2014 19:30 26,7 C 0,0 C 24,5 C 29,1 C 29,1 C 2,4 C 49 % 59 % 63 % 1016,1 hPa 0,0 l/m 0,2 km/h (0 Bft) W-SW 247 0 min 0,0 UV-I 15,1 C 29,1 C 0,0 km/h (0 Bft)
15.07.2014 19:35 26,5 C 0,0 C 24,4 C 28,9 C 28,9 C 2,4 C 49 % 59 % 63 % 1016,1 hPa 0,0 l/m 0,2 km/h (0 Bft) W 270 5 min 0,0 UV-I 14,9 C 28,9 C 1,9 km/h (1 Bft)
15.07.2014 19:40 26,3 C 0,0 C 24,1 C 28,1 C 28,1 C 1,8 C 48 % 60 % 47 % 1016,1 hPa 0,0 l/m 0,8 km/h (0 Bft) SW 225 0 min 0,0 UV-I 14,4 C 28,1 C 3,1 km/h (1 Bft)
15.07.2014 19:45 26,0 C 0,0 C 24,0 C 27,5 C 27,5 C 1,5 C 48 % 60 % 39 % 1016,1 hPa 0,0 l/m 1,3 km/h (1 Bft) SW 225 0 min 0,0 UV-I 14,1 C 27,5 C 1,9 km/h (1 Bft)
15.07.2014 19:50 25,8 C 0,0 C 23,7 C 26,4 C 26,4 C 0,6 C 49 % 61 % 16 % 1016,1 hPa 0,0 l/m 1,1 km/h (1 Bft) W 270 0 min 0,0 UV-I 14,3 C 26,4 C 0,0 km/h (0 Bft)
15.07.2014 19:55 25,6 C 0,0 C 23,7 C 26,4 C 26,4 C 0,8 C 50 % 62 % 21 % 1016,2 hPa 0,0 l/m 0,5 km/h (0 Bft) W-SW 247 0 min 0,0 UV-I 14,4 C 26,4 C 0,0 km/h (0 Bft)
15.07.2014 20:00 25,6 C 25,1 C 23,6 C 27,1 C 27,1 C 1,5 C 51 % 62 % 39 % 1016,2 hPa 0,0 l/m 0,2 km/h (0 Bft) S 180 0 min 0,0 UV-I 14,7 C 27,1 C 0,0 km/h (0 Bft)
15.07.2014 20:05 25,7 C 25,1 C 23,5 C 27,1 C 27,1 C 1,4 C 52 % 63 % 37 % 1016,2 hPa 0,0 l/m 0,2 km/h (0 Bft) W 270 0 min 0,0 UV-I 15,1 C 27,1 C 1,6 km/h (1 Bft)
15.07.2014 20:10 25,5 C 25,1 C 23,3 C 26,4 C 26,4 C 0,9 C 52 % 65 % 24 % 1016,2 hPa 0,0 l/m 0,0 km/h (0 Bft) O-SO 112 0 min 0,0 UV-I 14,9 C 26,4 C 0,0 km/h (0 Bft)
15.07.2014 20:15 25,3 C 25,1 C 23,1 C 25,7 C 25,7 C 0,4 C 52 % 65 % 11 % 1016,4 hPa 0,0 l/m 0,0 km/h (0 Bft) O-SO 112 0 min 0,0 UV-I 14,7 C 25,7 C 0,0 km/h (0 Bft)
15.07.2014 20:20 25,1 C 25,1 C 22,8 C 25,1 C 25,0 C 0,0 C 53 % 67 % 0 % 1016,4 hPa 0,0 l/m 0,0 km/h (0 Bft) O 90 0 min 0,0 UV-I 14,8 C 25,0 C 0,0 km/h (0 Bft)
15.07.2014 20:25 24,9 C 25,1 C 22,7 C 24,8 C 24,7 C 0,0 C 54 % 67 % 0 % 1016,4 hPa 0,0 l/m 0,2 km/h (0 Bft) SW 225 0 min 0,0 UV-I 14,9 C 24,7 C 0,0 km/h (0 Bft)
15.07.2014 20:30 24,8 C 25,1 C 22,7 C 24,6 C 24,3 C 0,0 C 56 % 68 % 0 % 1016,4 hPa 0,0 l/m 0,2 km/h (0 Bft) NO 45 0 min 0,0 UV-I 15,4 C 24,3 C 0,0 km/h (0 Bft)
15.07.2014 20:35 24,7 C 25,1 C 22,7 C 24,5 C 24,0 C 0,0 C 57 % 69 % 0 % 1016,4 hPa 0,0 l/m 0,0 km/h (0 Bft) O 90 0 min 0,0 UV-I 15,6 C 24,0 C 0,0 km/h (0 Bft)
15.07.2014 20:40 24,4 C 25,1 C 22,4 C 24,2 C 23,8 C 0,0 C 57 % 69 % 0 % 1016,4 hPa 0,0 l/m 0,0 km/h (0 Bft) O-NO 67 0 min 0,0 UV-I 15,3 C 23,8 C 0,0 km/h (0 Bft)
15.07.2014 20:45 24,3 C 25,1 C 22,4 C 24,1 C 23,6 C 0,0 C 57 % 67 % 0 % 1016,4 hPa 0,0 l/m 0,0 km/h (0 Bft) N-NW 337 0 min 0,0 UV-I 15,2 C 23,6 C 0,0 km/h (0 Bft)
15.07.2014 20:50 24,0 C 25,1 C 22,3 C 23,8 C 23,4 C 0,0 C 58 % 69 % 0 % 1016,4 hPa 0,0 l/m 0,0 km/h (0 Bft) O-NO 67 0 min 0,0 UV-I 15,2 C 23,4 C 0,0 km/h (0 Bft)
15.07.2014 20:55 23,8 C 25,1 C 22,1 C 23,6 C 23,3 C 0,0 C 59 % 69 % 0 % 1016,6 hPa 0,0 l/m 0,0 km/h (0 Bft) O-NO 67 0 min 0,0 UV-I 15,3 C 23,3 C 0,0 km/h (0 Bft)
15.07.2014 21:00 23,6 C 25,1 C 21,8 C 23,4 C 23,1 C 0,0 C 59 % 71 % 0 % 1016,6 hPa 0,0 l/m 0,0 km/h (0 Bft) O-NO 67 0 min 0,0 UV-I 15,1 C 23,1 C 0,0 km/h (0 Bft)
15.07.2014 21:05 23,5 C 25,1 C 21,8 C 23,3 C 23,0 C 0,0 C 60 % 71 % 0 % 1016,6 hPa 0,0 l/m 0,0 km/h (0 Bft) O-NO 67 0 min 0,0 UV-I 15,3 C 23,0 C 0,0 km/h (0 Bft)
15.07.2014 21:10 23,2 C 25,1 C 21,6 C 23,0 C 22,7 C 0,0 C 60 % 72 % 0 % 1016,6 hPa 0,0 l/m 0,0 km/h (0 Bft) O-NO 67 0 min 0,0 UV-I 15,0 C 22,7 C 0,0 km/h (0 Bft)
15.07.2014 21:15 23,1 C 25,1 C 21,6 C 22,9 C 22,5 C 0,0 C 61 % 72 % 0 % 1016,7 hPa 0,0 l/m 0,0 km/h (0 Bft) O-NO 67 0 min 0,0 UV-I 15,2 C 22,5 C 0,0 km/h (0 Bft)
15.07.2014 21:20 22,8 C 25,1 C 21,3 C 22,6 C 22,1 C 0,0 C 63 % 72 % 0 % 1016,7 hPa 0,0 l/m 0,0 km/h (0 Bft) O-NO 67 0 min 0,0 UV-I 15,4 C 22,1 C 0,0 km/h (0 Bft)
15.07.2014 21:25 22,7 C 25,1 C 21,3 C 22,4 C 21,9 C 0,0 C 63 % 73 % 0 % 1016,7 hPa 0,0 l/m 0,0 km/h (0 Bft) O 90 0 min 0,0 UV-I 15,3 C 21,9 C 0,0 km/h (0 Bft)
15.07.2014 21:30 22,5 C 25,1 C 21,1 C 22,2 C 21,5 C 0,0 C 64 % 73 % 0 % 1016,7 hPa 0,0 l/m 0,0 km/h (0 Bft) O-NO 67 0 min 0,0 UV-I 15,3 C 21,5 C 0,0 km/h (0 Bft)
15.07.2014 21:35 22,2 C 25,1 C 21,1 C 21,9 C 21,2 C 0,0 C 65 % 73 % 0 % 1016,8 hPa 0,0 l/m 0,0 km/h (0 Bft) O 90 0 min 0,0 UV-I 15,3 C 21,2 C 0,0 km/h (0 Bft)
15.07.2014 21:40 21,9 C 25,1 C 20,7 C 21,6 C 20,9 C 0,0 C 66 % 74 % 0 % 1016,8 hPa 0,0 l/m 0,0 km/h (0 Bft) O-NO 67 0 min 0,0 UV-I 15,3 C 20,9 C 0,0 km/h (0 Bft)
15.07.2014 21:45 21,7 C 25,1 C 20,7 C 21,3 C 20,6 C 0,0 C 67 % 75 % 0 % 1016,8 hPa 0,0 l/m 0,0 km/h (0 Bft) O-NO 67 0 min 0,0 UV-I 15,3 C 20,6 C 0,0 km/h (0 Bft)
15.07.2014 21:50 21,4 C 25,1 C 20,5 C 21,0 C 20,2 C 0,0 C 67 % 75 % 0 % 1016,8 hPa 0,0 l/m 0,0 km/h (0 Bft) NO 45 0 min 0,0 UV-I 15,0 C 20,2 C 0,0 km/h (0 Bft)
15.07.2014 21:55 21,3 C 25,2 C 20,3 C 20,8 C 19,9 C 0,0 C 68 % 75 % 0 % 1017,1 hPa 0,0 l/m 0,0 km/h (0 Bft) NO 45 0 min 0,0 UV-I 15,1 C 19,9 C 0,0 km/h (0 Bft)
15.07.2014 22:00 21,1 C 25,2 C 20,1 C 20,6 C 19,5 C 0,0 C 68 % 76 % 0 % 1017,1 hPa 0,0 l/m 0,0 km/h (0 Bft) NO 45 0 min 0,0 UV-I 15,0 C 19,5 C 0,0 km/h (0 Bft)
15.07.2014 22:05 20,8 C 25,2 C 19,9 C 20,3 C 19,3 C 0,0 C 69 % 76 % 0 % 1017,1 hPa 0,0 l/m 0,0 km/h (0 Bft) NO 45 0 min 0,0 UV-I 14,9 C 19,3 C 0,0 km/h (0 Bft)
15.07.2014 22:10 20,7 C 25,3 C 19,6 C 20,2 C 19,1 C 0,0 C 70 % 77 % 0 % 1017,1 hPa 0,0 l/m 0,0 km/h (0 Bft) NO 45 0 min 0,0 UV-I 15,0 C 19,1 C 0,0 km/h (0 Bft)
15.07.2014 22:15 20,4 C 25,3 C 19,7 C 19,9 C 18,9 C 0,0 C 70 % 77 % 0 % 1017,4 hPa 0,0 l/m 0,0 km/h (0 Bft) O-NO 67 0 min 0,0 UV-I 14,7 C 18,9 C 0,0 km/h (0 Bft)
15.07.2014 22:20 20,1 C 25,3 C 19,3 C 19,7 C 18,8 C 0,0 C 71 % 78 % 0 % 1017,4 hPa 0,0 l/m 0,0 km/h (0 Bft) O-NO 67 0 min 0,0 UV-I 14,7 C 18,8 C 0,0 km/h (0 Bft)
15.07.2014 22:25 20,0 C 25,3 C 19,3 C 19,5 C 18,6 C 0,0 C 72 % 78 % 0 % 1017,4 hPa 0,0 l/m 0,0 km/h (0 Bft) O-NO 67 0 min 0,0 UV-I 14,8 C 18,6 C 0,0 km/h (0 Bft)
15.07.2014 22:30 19,9 C 25,3 C 19,2 C 19,4 C 18,4 C 0,0 C 72 % 78 % 0 % 1017,4 hPa 0,0 l/m 0,0 km/h (0 Bft) O-NO 67 0 min 0,0 UV-I 14,7 C 18,4 C 0,0 km/h (0 Bft)
15.07.2014 22:35 19,7 C 25,3 C 19,1 C 19,3 C 18,4 C 0,0 C 73 % 78 % 0 % 1017,4 hPa 0,0 l/m 0,0 km/h (0 Bft) O-NO 67 0 min 0,0 UV-I 14,7 C 18,4 C 0,0 km/h (0 Bft)
15.07.2014 22:40 19,6 C 25,3 C 19,1 C 19,2 C 18,4 C 0,0 C 74 % 79 % 0 % 1017,4 hPa 0,0 l/m 0,0 km/h (0 Bft) O-NO 67 0 min 0,0 UV-I 14,8 C 18,4 C 0,0 km/h (0 Bft)
15.07.2014 22:45 19,5 C 25,3 C 19,1 C 19,1 C 18,4 C 0,0 C 74 % 79 % 0 % 1017,4 hPa 0,0 l/m 0,0 km/h (0 Bft) O-NO 67 0 min 0,0 UV-I 14,7 C 18,4 C 0,0 km/h (0 Bft)
15.07.2014 22:50 19,4 C 25,3 C 18,9 C 19,0 C 18,3 C 0,0 C 75 % 80 % 0 % 1017,4 hPa 0,0 l/m 0,0 km/h (0 Bft) O-NO 67 0 min 0,0 UV-I 14,8 C 18,3 C 0,0 km/h (0 Bft)
15.07.2014 22:55 19,2 C 25,3 C 18,9 C 18,8 C 18,1 C 0,0 C 75 % 80 % 0 % 1017,5 hPa 0,0 l/m 0,0 km/h (0 Bft) O-NO 67 0 min 0,0 UV-I 14,7 C 18,1 C 0,0 km/h (0 Bft)
15.07.2014 23:00 19,1 C 25,3 C 18,7 C 18,7 C 17,9 C 0,0 C 76 % 80 % 0 % 1017,5 hPa 0,0 l/m 0,0 km/h (0 Bft) N-NW 337 0 min 0,0 UV-I 14,8 C 17,9 C 0,0 km/h (0 Bft)
15.07.2014 23:05 19,0 C 25,3 C 18,6 C 18,6 C 17,7 C 0,0 C 77 % 80 % 0 % 1017,5 hPa 0,0 l/m 0,0 km/h (0 Bft) N-NW 337 0 min 0,0 UV-I 14,9 C 17,7 C 0,0 km/h (0 Bft)
15.07.2014 23:10 18,9 C 25,3 C 18,5 C 18,4 C 17,5 C 0,0 C 77 % 81 % 0 % 1017,5 hPa 0,0 l/m 0,0 km/h (0 Bft) N-NW 337 0 min 0,0 UV-I 14,8 C 17,5 C 0,0 km/h (0 Bft)
15.07.2014 23:15 18,8 C 25,3 C 18,5 C 18,3 C 17,3 C 0,0 C 77 % 81 % 0 % 1017,4 hPa 0,0 l/m 0,0 km/h (0 Bft) N-NW 337 0 min 0,0 UV-I 14,7 C 17,3 C 0,0 km/h (0 Bft)
15.07.2014 23:20 18,7 C 25,3 C 18,4 C 18,2 C 17,3 C 0,0 C 78 % 81 % 0 % 1017,4 hPa 0,0 l/m 0,0 km/h (0 Bft) O-NO 67 0 min 0,0 UV-I 14,8 C 17,3 C 0,0 km/h (0 Bft)
15.07.2014 23:25 18,5 C 25,3 C 18,3 C 18,1 C 17,3 C 0,0 C 79 % 82 % 0 % 1017,4 hPa 0,0 l/m 0,0 km/h (0 Bft) O-NO 67 0 min 0,0 UV-I 14,8 C 17,3 C 0,0 km/h (0 Bft)
15.07.2014 23:30 18,4 C 25,3 C 18,3 C 18,0 C 17,2 C 0,0 C 80 % 82 % 0 % 1017,4 hPa 0,0 l/m 0,0 km/h (0 Bft) W 270 0 min 0,0 UV-I 14,9 C 17,2 C 0,0 km/h (0 Bft)
15.07.2014 23:35 18,4 C 25,3 C 18,2 C 18,0 C 17,1 C 0,0 C 80 % 82 % 0 % 1017,2 hPa 0,0 l/m 0,0 km/h (0 Bft) W 270 0 min 0,0 UV-I 14,9 C 17,1 C 0,0 km/h (0 Bft)
15.07.2014 23:40 18,3 C 25,3 C 18,0 C 17,9 C 17,1 C 0,0 C 80 % 82 % 0 % 1017,2 hPa 0,0 l/m 0,0 km/h (0 Bft) N-NO 22 0 min 0,0 UV-I 14,8 C 17,1 C 0,0 km/h (0 Bft)
15.07.2014 23:45 18,2 C 25,3 C 18,0 C 17,8 C 17,0 C 0,0 C 80 % 83 % 0 % 1017,2 hPa 0,0 l/m 0,0 km/h (0 Bft) N 360 0 min 0,0 UV-I 14,7 C 17,0 C 0,0 km/h (0 Bft)
15.07.2014 23:50 18,0 C 25,3 C 17,9 C 17,6 C 16,8 C 0,0 C 81 % 83 % 0 % 1017,2 hPa 0,0 l/m 0,0 km/h (0 Bft) W-SW 247 0 min 0,0 UV-I 14,7 C 16,8 C 0,0 km/h (0 Bft)
15.07.2014 23:55 18,1 C 25,3 C 17,9 C 17,7 C 16,8 C 0,0 C 81 % 83 % 0 % 1017,8 hPa 0,0 l/m 0,0 km/h (0 Bft) W-SW 247 0 min 0,0 UV-I 14,8 C 16,8 C 0,0 km/h (0 Bft)
_ Min-Zeit 05:15 15:16 05:10 05:10 05:10 00:00 15:51 16:55 00:00 00:00 - 00:00 - - - 00:00 05:15 05:10 00:00
Minimum _ 12,8 C 0,0 C 14,2 C 12,9 C 12,9 C 0,0 C 43 % 57 % 0 % 1013,2 hPa - 0,0 km/h (0 Bft) - - - 0,0 UV-I 10,9 C 12,9 C 0,0 km/h (0 Bft)
_ Max-Zeit 16:16 22:10 16:50 15:16 15:16 10:55 07:45 05:10 07:30 23:55 00:00 16:45 - - 16:45 13:05 11:00 15:16 18:20
Maximum _ 29,7 C 25,3 C 25,7 C 34,3 C 34,3 C 9,5 C 92 % 89 % 100 % 1017,8 hPa 0,0 l/m 3,7 km/h
W-SW (1 Bft)
- - 29 min 0,1 UV-I 17,2 C 34,3 C 6,0 km/h
W-SW (2 Bft)
Durchschnitt _ 20,8 C 20,1 C 20,0 C 23,4 C 23,3 C 2,7 C 70 % 76 % 52 % 1016,1 hPa #0,0 l/m 0,6 km/h (0 Bft) W-SW - #11:20 h 0,1 UV-I 14,6 C 23,3 C 0,9 km/h (0 Bft)
2014 www.wetterstation-wechselburg.de